TimeCDT,TemperatureF,Dew PointF,Humidity,Sea Level PressureIn,VisibilityMPH,Wind Direction,Wind SpeedMPH,Gust SpeedMPH,PrecipitationIn,Events,Conditions,WindDirDegrees,DateUTC
12:15 AM,42.8,42.8,100,29.93,10.0,Calm,Calm,-,N/A,,Clear,0,2013-05-06 05:15:00
12:35 AM,42.8,42.8,100,29.93,10.0,Calm,Calm,-,N/A,,Clear,0,2013-05-06 05:35:00
12:55 AM,42.8,41.0,93,29.93,7.0,Calm,Calm,-,N/A,,Clear,0,2013-05-06 05:55:00
1:15 AM,42.8,42.8,100,29.92,10.0,Calm,Calm,-,N/A,,Clear,0,2013-05-06 06:15:00
1:35 AM,42.8,42.8,100,29.91,10.0,Calm,Calm,-,N/A,,Scattered Clouds,0,2013-05-06 06:35:00
1:55 AM,44.6,42.8,93,29.91,10.0,Calm,Calm,-,N/A,,Overcast,0,2013-05-06 06:55:00
2:15 AM,42.8,42.8,100,29.90,10.0,Calm,Calm,-,N/A,,Scattered Clouds,0,2013-05-06 07:15:00
2:35 AM,44.6,42.8,93,29.89,10.0,Calm,Calm,-,N/A,,Clear,0,2013-05-06 07:35:00
2:55 AM,44.6,42.8,93,29.89,10.0,SW,3.5,-,N/A,,Scattered Clouds,230,2013-05-06 07:55:00
3:15 AM,44.6,42.8,93,29.90,10.0,SW,3.5,-,N/A,,Mostly Cloudy,230,2013-05-06 08:15:00
3:35 AM,44.6,44.6,100,29.90,10.0,Calm,Calm,-,N/A,,Mostly Cloudy,0,2013-05-06 08:35:00
3:55 AM,46.4,44.6,93,29.90,10.0,Calm,Calm,-,N/A,,Overcast,0,2013-05-06 08:55:00
4:15 AM,46.4,44.6,93,29.90,10.0,Calm,Calm,-,N/A,,Overcast,0,2013-05-06 09:15:00
4:35 AM,46.4,44.6,93,29.90,10.0,Calm,Calm,-,N/A,,Overcast,0,2013-05-06 09:35:00
4:55 AM,46.4,44.6,93,29.90,10.0,Calm,Calm,-,N/A,,Overcast,0,2013-05-06 09:55:00
5:15 AM,46.4,46.4,100,29.90,10.0,Calm,Calm,-,N/A,Rain,Rain,0,2013-05-06 10:15:00
5:35 AM,46.4,46.4,100,29.90,10.0,WSW,3.5,-,N/A,,Overcast,250,2013-05-06 10:35:00
5:55 AM,48.2,46.4,93,29.90,10.0,WSW,5.8,-,N/A,,Overcast,240,2013-05-06 10:55:00
6:15 AM,48.2,46.4,93,29.91,10.0,SW,4.6,-,N/A,,Overcast,230,2013-05-06 11:15:00
6:35 AM,48.2,46.4,93,29.91,10.0,SW,3.5,-,N/A,,Overcast,230,2013-05-06 11:35:00
6:55 AM,50.0,46.4,87,29.91,10.0,Calm,Calm,-,N/A,,Overcast,0,2013-05-06 11:55:00
7:15 AM,50.0,48.2,94,29.92,10.0,Calm,Calm,-,N/A,,Overcast,0,2013-05-06 12:15:00
7:35 AM,50.0,48.2,94,29.91,10.0,Calm,Calm,-,N/A,,Overcast,0,2013-05-06 12:35:00
7:55 AM,50.0,50.0,100,29.92,10.0,Calm,Calm,-,N/A,,Overcast,0,2013-05-06 12:55:00
8:15 AM,51.8,50.0,94,29.92,10.0,Calm,Calm,-,N/A,,Overcast,0,2013-05-06 13:15:00
8:35 AM,51.8,50.0,94,29.93,10.0,West,4.6,-,N/A,,Overcast,260,2013-05-06 13:35:00
8:55 AM,53.6,50.0,88,29.93,10.0,West,3.5,-,N/A,,Overcast,260,2013-05-06 13:55:00
9:15 AM,53.6,50.0,88,29.93,10.0,West,5.8,-,N/A,,Overcast,260,2013-05-06 14:15:00
9:35 AM,53.6,51.8,94,29.94,10.0,West,5.8,-,N/A,,Overcast,270,2013-05-06 14:35:00
9:55 AM,53.6,51.8,94,29.93,10.0,West,3.5,-,N/A,,Overcast,270,2013-05-06 14:55:00
10:15 AM,55.4,51.8,88,29.93,10.0,West,4.6,-,N/A,,Overcast,260,2013-05-06 15:15:00
10:35 AM,55.4,51.8,88,29.93,10.0,WSW,5.8,-,N/A,,Overcast,250,2013-05-06 15:35:00
10:55 AM,55.4,51.8,88,29.93,10.0,West,8.1,-,N/A,,Overcast,260,2013-05-06 15:55:00
11:15 AM,55.4,51.8,88,29.93,10.0,West,6.9,-,N/A,,Overcast,260,2013-05-06 16:15:00
11:35 AM,55.4,51.8,88,29.93,10.0,West,4.6,-,N/A,,Overcast,280,2013-05-06 16:35:00
11:55 AM,57.2,51.8,82,29.92,10.0,West,8.1,-,N/A,,Overcast,260,2013-05-06 16:55:00
12:15 PM,57.2,53.6,88,29.93,10.0,WSW,6.9,-,N/A,,Overcast,250,2013-05-06 17:15:00
12:35 PM,57.2,53.6,88,29.92,10.0,West,3.5,-,N/A,Rain,Light Rain,270,2013-05-06 17:35:00
12:55 PM,57.2,53.6,88,29.92,10.0,West,6.9,-,N/A,,Overcast,280,2013-05-06 17:55:00
1:15 PM,55.4,53.6,94,29.92,10.0,WSW,6.9,-,N/A,Rain,Rain,250,2013-05-06 18:15:00
1:35 PM,55.4,53.6,94,29.92,7.0,West,5.8,-,N/A,Rain,Rain,260,2013-05-06 18:35:00
1:55 PM,55.4,53.6,94,29.92,10.0,WSW,6.9,-,N/A,,Overcast,250,2013-05-06 18:55:00
2:15 PM,55.4,53.6,94,29.92,7.0,WSW,5.8,-,N/A,Rain,Light Rain,250,2013-05-06 19:15:00
2:55 PM,60.8,53.6,77,29.90,10.0,West,8.1,-,N/A,,Overcast,270,2013-05-06 19:55:00
3:15 PM,59.0,53.6,82,29.90,10.0,West,8.1,-,N/A,,Overcast,270,2013-05-06 20:15:00
3:35 PM,60.8,55.4,82,29.89,10.0,West,8.1,-,N/A,,Overcast,260,2013-05-06 20:35:00
3:55 PM,60.8,53.6,77,29.88,10.0,West,6.9,-,N/A,Rain,Light Rain,260,2013-05-06 20:55:00
4:15 PM,59.0,55.4,88,29.88,10.0,West,4.6,-,0.01,,Overcast,270,2013-05-06 21:15:00
4:35 PM,59.0,55.4,88,29.88,10.0,West,8.1,-,0.01,,Overcast,280,2013-05-06 21:35:00
4:55 PM,60.8,55.4,82,29.88,10.0,West,5.8,-,0.01,,Overcast,270,2013-05-06 21:55:00
5:15 PM,60.8,55.4,82,29.88,10.0,West,4.6,-,N/A,,Overcast,270,2013-05-06 22:15:00
5:35 PM,62.6,55.4,77,29.88,10.0,West,3.5,-,N/A,,Overcast,270,2013-05-06 22:35:00
5:55 PM,62.6,55.4,77,29.89,10.0,West,8.1,-,N/A,,Overcast,280,2013-05-06 22:55:00
6:15 PM,60.8,55.4,82,29.89,10.0,WNW,3.5,-,N/A,Rain,Light Rain,290,2013-05-06 23:15:00
6:35 PM,60.8,55.4,82,29.90,10.0,WNW,5.8,-,N/A,Rain,Rain,290,2013-05-06 23:35:00
6:55 PM,60.8,55.4,82,29.90,10.0,West,4.6,-,N/A,,Mostly Cloudy,280,2013-05-06 23:55:00
7:15 PM,59.0,55.4,88,29.91,10.0,West,3.5,-,N/A,,Scattered Clouds,260,2013-05-07 00:15:00
7:35 PM,59.0,55.4,88,29.91,10.0,West,3.5,-,N/A,,Mostly Cloudy,280,2013-05-07 00:35:00
7:55 PM,59.0,55.4,88,29.92,10.0,West,4.6,-,N/A,,Overcast,270,2013-05-07 00:55:00
8:15 PM,59.0,55.4,88,29.93,10.0,West,4.6,-,N/A,,Overcast,270,2013-05-07 01:15:00
8:35 PM,57.2,53.6,88,29.93,10.0,West,3.5,-,N/A,,Mostly Cloudy,280,2013-05-07 01:35:00
8:55 PM,57.2,53.6,88,29.94,10.0,Calm,Calm,-,N/A,,Overcast,0,2013-05-07 01:55:00
9:15 PM,55.4,53.6,94,29.95,10.0,Calm,Calm,-,N/A,,Mostly Cloudy,0,2013-05-07 02:15:00
9:35 PM,55.4,53.6,94,29.95,10.0,Calm,Calm,-,N/A,,Overcast,0,2013-05-07 02:35:00
9:55 PM,55.4,53.6,94,29.95,10.0,Calm,Calm,-,N/A,,Mostly Cloudy,0,2013-05-07 02:55:00
10:15 PM,55.4,53.6,94,29.96,10.0,Calm,Calm,-,N/A,,Mostly Cloudy,0,2013-05-07 03:15:00
10:35 PM,53.6,51.8,94,29.96,10.0,Calm,Calm,-,N/A,,Clear,0,2013-05-07 03:35:00
10:55 PM,53.6,51.8,94,29.96,10.0,Calm,Calm,-,N/A,,Clear,0,2013-05-07 03:55:00
11:15 PM,53.6,51.8,94,29.96,10.0,Calm,Calm,-,N/A,,Clear,0,2013-05-07 04:15:00
11:35 PM,53.6,51.8,94,29.96,10.0,Calm,Calm,-,N/A,,Clear,0,2013-05-07 04:35:00
11:55 PM,53.6,51.8,94,29.96,10.0,Calm,Calm,-,N/A,,Clear,0,2013-05-07 04:55:00